CES8543 ZUTF-ZULS

Flight info

Callsign CES8543
Flight time 2h 18m
Altitude 32100
Route MUMGO B213 IGELA W522 IGDAG
Aircraft A319/M-SADE1E2E3GHIJ1J3J5M1P2RWXY/LB1

Departure

Time 2026-05-05 08:22
Airport Chengdu Tianfu International Airport (ZUTF)

Arrival

Time 2026-05-05 10:40
Airport Lhasa Gonggar International Airport (ZULS)
Time Latitude Longitude Altitude Speed Heading
2026-05-05 07:20 30.30980 104.44103 1460 ft 0 kts 112°
2026-05-05 08:05 30.30981 104.44101 1460 ft 2 kts 112°
2026-05-05 08:05 30.30986 104.44085 1460 ft 2 kts 112°
2026-05-05 08:05 30.30994 104.44070 1460 ft 2 kts 136°
2026-05-05 08:06 30.31006 104.44059 1460 ft 2 kts 155°
2026-05-05 08:06 30.31020 104.44054 1460 ft 2 kts 174°
2026-05-05 08:06 30.31036 104.44055 1460 ft 2 kts 194°
2026-05-05 08:06 30.31042 104.44057 1460 ft 1 kts 205°
2026-05-05 08:07 30.31046 104.44059 1460 ft 0 kts 202°
2026-05-05 08:08 30.31041 104.44057 1460 ft 0 kts 202°
2026-05-05 08:09 30.31033 104.44053 1460 ft 1 kts 202°
2026-05-05 08:09 30.31020 104.44047 1460 ft 2 kts 202°
2026-05-05 08:09 30.31003 104.44038 1460 ft 2 kts 202°
2026-05-05 08:09 30.30982 104.44029 1460 ft 3 kts 202°
2026-05-05 08:10 30.30958 104.44017 1460 ft 4 kts 202°
2026-05-05 08:10 30.30930 104.44004 1460 ft 4 kts 201°
2026-05-05 08:10 30.30899 104.43990 1460 ft 5 kts 201°
2026-05-05 08:10 30.30866 104.43974 1460 ft 5 kts 201°
2026-05-05 08:11 30.30817 104.43951 1460 ft 9 kts 201°
2026-05-05 08:11 30.30742 104.43918 1460 ft 13 kts 201°
2026-05-05 08:11 30.30668 104.43891 1460 ft 10 kts 199°
2026-05-05 08:11 30.30597 104.43858 1460 ft 11 kts 202°
2026-05-05 08:12 30.30524 104.43834 1460 ft 10 kts 168°
2026-05-05 08:12 30.30480 104.43899 1460 ft 10 kts 110°
2026-05-05 08:12 30.30452 104.43975 1460 ft 10 kts 115°
2026-05-05 08:12 30.30426 104.44051 1460 ft 10 kts 111°
2026-05-05 08:13 30.30400 104.44121 1460 ft 9 kts 112°
2026-05-05 08:13 30.30376 104.44190 1460 ft 9 kts 111°
2026-05-05 08:13 30.30384 104.44255 1460 ft 8 kts 50°
2026-05-05 08:13 30.30432 104.44290 1460 ft 8 kts 23°
2026-05-05 08:14 30.30484 104.44315 1460 ft 8 kts 22°
2026-05-05 08:14 30.30535 104.44340 1460 ft 7 kts 22°
2026-05-05 08:14 30.30585 104.44363 1460 ft 7 kts 22°
2026-05-05 08:14 30.30632 104.44389 1460 ft 7 kts 25°
2026-05-05 08:15 30.30654 104.44433 1460 ft 6 kts 100°
2026-05-05 08:15 30.30638 104.44486 1460 ft 7 kts 110°
2026-05-05 08:15 30.30636 104.44556 1460 ft 10 kts 60°
2026-05-05 08:15 30.30703 104.44599 1460 ft 12 kts 24°
2026-05-05 08:16 30.30792 104.44643 1460 ft 14 kts 22°
2026-05-05 08:16 30.30871 104.44692 1460 ft 13 kts 49°
2026-05-05 08:16 30.30854 104.44797 1460 ft 14 kts 111°
2026-05-05 08:16 30.30849 104.44910 1460 ft 12 kts 57°
2026-05-05 08:17 30.30896 104.45005 1459 ft 14 kts 50°
2026-05-05 08:17 30.30992 104.45062 1460 ft 16 kts 22°
2026-05-05 08:17 30.31102 104.45115 1459 ft 17 kts 21°
2026-05-05 08:17 30.31223 104.45171 1460 ft 19 kts 22°
2026-05-05 08:18 30.31352 104.45232 1460 ft 20 kts 22°
2026-05-05 08:18 30.31449 104.45279 1459 ft 13 kts 22°
2026-05-05 08:18 30.31521 104.45347 1459 ft 14 kts 83°
2026-05-05 08:18 30.31502 104.45471 1459 ft 16 kts 110°
2026-05-05 08:19 30.31457 104.45604 1459 ft 18 kts 110°
2026-05-05 08:19 30.31406 104.45747 1459 ft 19 kts 111°
2026-05-05 08:19 30.31369 104.45854 1459 ft 13 kts 112°
2026-05-05 08:19 30.31371 104.45935 1459 ft 8 kts 40°
2026-05-05 08:20 30.31430 104.45962 1459 ft 10 kts 20°
2026-05-05 08:20 30.31483 104.46024 1459 ft 11 kts 70°
2026-05-05 08:20 30.31479 104.46094 1459 ft 2 kts 110°
2026-05-05 08:20 30.31478 104.46097 1459 ft 0 kts 110°
2026-05-05 08:21 30.31416 104.46274 1459 ft 60 kts 110°
2026-05-05 08:21 30.31167 104.46983 1460 ft 128 kts 112°
2026-05-05 08:21 30.30763 104.48149 1489 ft 179 kts 109°
2026-05-05 08:22 30.30287 104.49519 1982 ft 183 kts 108°
2026-05-05 08:22 30.29811 104.50835 2682 ft 175 kts 109°
2026-05-05 08:22 30.29356 104.52083 3371 ft 167 kts 109°
2026-05-05 08:22 30.28904 104.53348 3728 ft 179 kts 109°
2026-05-05 08:23 30.28406 104.54755 4022 ft 196 kts 110°
2026-05-05 08:23 30.27869 104.56271 4337 ft 214 kts 110°
2026-05-05 08:23 30.27273 104.57946 4654 ft 235 kts 111°
2026-05-05 08:23 30.26626 104.59771 5065 ft 254 kts 112°
2026-05-05 08:24 30.25927 104.61728 5493 ft 271 kts 113°
2026-05-05 08:24 30.25195 104.63780 6105 ft 281 kts 114°
2026-05-05 08:24 30.24442 104.65892 6833 ft 285 kts 115°
2026-05-05 08:24 30.23678 104.68030 7528 ft 291 kts 115°
2026-05-05 08:25 30.22899 104.70208 8200 ft 296 kts 115°
2026-05-05 08:25 30.22105 104.72427 8838 ft 302 kts 116°
2026-05-05 08:25 30.21295 104.74695 9473 ft 308 kts 115°
2026-05-05 08:25 30.20527 104.77028 10073 ft 315 kts 106°
2026-05-05 08:26 30.20429 104.79565 10572 ft 327 kts 79°
2026-05-05 08:26 30.21313 104.82039 10860 ft 339 kts 51°
2026-05-05 08:26 30.23072 104.83878 11139 ft 346 kts 25°
2026-05-05 08:26 30.25354 104.84978 11478 ft 355 kts 16°
2026-05-05 08:27 30.27696 104.85979 12005 ft 362 kts 16°
2026-05-05 08:27 30.30029 104.87018 12614 ft 365 kts 17°
2026-05-05 08:27 30.32443 104.87864 13188 ft 360 kts
2026-05-05 08:27 30.34900 104.87640 13766 ft 348 kts 337°
2026-05-05 08:28 30.37033 104.86425 14361 ft 338 kts 319°
2026-05-05 08:28 30.38922 104.84801 14908 ft 341 kts 317°
2026-05-05 08:28 30.40817 104.83151 15457 ft 344 kts 318°
2026-05-05 08:28 30.42777 104.81470 15998 ft 347 kts 318°
2026-05-05 08:29 30.44730 104.79810 16505 ft 351 kts 319°
2026-05-05 08:29 30.46557 104.77964 16994 ft 347 kts 304°
2026-05-05 08:29 30.47722 104.75601 17488 ft 341 kts 286°
2026-05-05 08:30 30.48338 104.70172 18514 ft 341 kts 272°
2026-05-05 08:30 30.48496 104.67414 18966 ft 344 kts 272°
2026-05-05 08:30 30.48655 104.64635 19135 ft 347 kts 272°
2026-05-05 08:30 30.48816 104.61848 19138 ft 345 kts 272°
2026-05-05 08:31 30.48973 104.59098 19140 ft 344 kts 272°
2026-05-05 08:31 30.49132 104.56345 19140 ft 345 kts 272°
2026-05-05 08:31 30.49294 104.53542 19142 ft 345 kts 272°
2026-05-05 08:31 30.49453 104.50764 19220 ft 349 kts 272°
2026-05-05 08:32 30.49613 104.47952 19717 ft 351 kts 272°
2026-05-05 08:32 30.49773 104.45122 20299 ft 350 kts 272°
2026-05-05 08:32 30.49933 104.42288 20773 ft 352 kts 272°
2026-05-05 08:32 30.50094 104.39451 21216 ft 354 kts 272°
2026-05-05 08:33 30.50256 104.36566 21652 ft 356 kts 272°
2026-05-05 08:33 30.50415 104.33681 22075 ft 359 kts 271°
2026-05-05 08:33 30.50576 104.30822 22520 ft 360 kts 271°
2026-05-05 08:33 30.50737 104.27911 22939 ft 362 kts 271°
2026-05-05 08:34 30.50899 104.24970 23353 ft 364 kts 271°
2026-05-05 08:34 30.51139 104.22038 23736 ft 368 kts 274°
2026-05-05 08:34 30.51545 104.19103 24119 ft 371 kts 278°
2026-05-05 08:34 30.52111 104.16196 24483 ft 375 kts 281°
2026-05-05 08:35 30.52798 104.13281 24841 ft 377 kts 282°
2026-05-05 08:35 30.53504 104.10329 25175 ft 380 kts 282°
2026-05-05 08:35 30.54217 104.07355 25501 ft 382 kts 282°
2026-05-05 08:35 30.54933 104.04379 25835 ft 384 kts 282°
2026-05-05 08:36 30.55644 104.01415 26139 ft 387 kts 281°
2026-05-05 08:36 30.56369 103.98387 26450 ft 389 kts 282°
2026-05-05 08:36 30.57093 103.95365 26758 ft 391 kts 282°
2026-05-05 08:36 30.57903 103.92330 27079 ft 394 kts 284°
2026-05-05 08:37 30.58741 103.89331 27389 ft 395 kts 284°
2026-05-05 08:37 30.59597 103.86273 27664 ft 398 kts 284°
2026-05-05 08:37 30.60457 103.83199 27949 ft 400 kts 284°
2026-05-05 08:37 30.61315 103.80127 28217 ft 402 kts 283°
2026-05-05 08:38 30.62177 103.77034 28481 ft 404 kts 284°
2026-05-05 08:38 30.63039 103.73940 28760 ft 406 kts 283°
2026-05-05 08:38 30.63910 103.70812 29030 ft 408 kts 284°
2026-05-05 08:38 30.64755 103.67635 29295 ft 408 kts 282°
2026-05-05 08:39 30.65530 103.64482 29638 ft 408 kts 281°
2026-05-05 08:39 30.66306 103.61299 30016 ft 406 kts 282°
2026-05-05 08:39 30.67065 103.58172 30404 ft 404 kts 282°
2026-05-05 08:39 30.67830 103.55016 30805 ft 402 kts 282°
2026-05-05 08:40 30.68576 103.51930 31138 ft 401 kts 282°
2026-05-05 08:40 30.69333 103.48799 31428 ft 401 kts 282°
2026-05-05 08:40 30.70083 103.45692 31691 ft 401 kts 282°
2026-05-05 08:40 30.70837 103.42569 31953 ft 402 kts 281°
2026-05-05 08:41 30.71598 103.39410 32213 ft 402 kts 282°
2026-05-05 08:41 30.73102 103.33160 32296 ft 402 kts 281°
2026-05-05 08:42 30.74598 103.26920 32316 ft 401 kts 281°
2026-05-05 08:42 30.76094 103.20671 32343 ft 401 kts 281°
2026-05-05 08:43 30.77592 103.14404 32384 ft 400 kts 281°
2026-05-05 08:43 30.79018 103.08187 32419 ft 399 kts 279°
2026-05-05 08:44 30.79994 103.01832 32446 ft 396 kts 274°
2026-05-05 08:44 30.80417 102.95473 32459 ft 395 kts 269°
2026-05-05 08:45 30.80380 102.89076 32456 ft 394 kts 266°
2026-05-05 08:45 30.80276 102.82703 32449 ft 394 kts 266°
2026-05-05 08:46 30.80166 102.76360 32438 ft 395 kts 266°
2026-05-05 08:46 30.80048 102.69967 32433 ft 394 kts 266°
2026-05-05 08:47 30.79928 102.63577 32438 ft 395 kts 266°
2026-05-05 08:47 30.79803 102.57207 32444 ft 395 kts 266°
2026-05-05 08:48 30.79674 102.50848 32450 ft 395 kts 266°
2026-05-05 08:48 30.79539 102.44426 32454 ft 395 kts 266°
2026-05-05 08:49 30.79403 102.38076 32454 ft 395 kts 266°
2026-05-05 08:49 30.79265 102.31706 32455 ft 394 kts 266°
2026-05-05 08:50 30.79121 102.25291 32453 ft 394 kts 266°
2026-05-05 08:50 30.78977 102.18926 32448 ft 394 kts 266°
2026-05-05 08:51 30.78828 102.12572 32436 ft 394 kts 266°
2026-05-05 08:51 30.78676 102.06187 32421 ft 395 kts 266°
2026-05-05 08:52 30.78517 101.99678 32403 ft 407 kts 266°
2026-05-05 08:52 30.78368 101.93045 32402 ft 411 kts 268°
2026-05-05 08:53 30.78623 101.86417 32416 ft 413 kts 272°
2026-05-05 08:53 30.79172 101.79757 32430 ft 414 kts 272°
2026-05-05 08:54 30.79723 101.73098 32444 ft 414 kts 272°
2026-05-05 08:54 30.80276 101.66394 32452 ft 414 kts 272°
2026-05-05 08:55 30.80819 101.59776 32457 ft 413 kts 272°
2026-05-05 08:55 30.81364 101.53092 32462 ft 414 kts 272°
2026-05-05 08:56 30.81904 101.46425 32465 ft 414 kts 272°
2026-05-05 08:56 30.82444 101.39725 32466 ft 413 kts 272°
2026-05-05 08:57 30.82978 101.33048 32468 ft 413 kts 272°
2026-05-05 08:57 30.83505 101.26413 32465 ft 413 kts 272°
2026-05-05 08:58 30.84033 101.19736 32464 ft 413 kts 272°
2026-05-05 08:58 30.84554 101.13097 32460 ft 413 kts 272°
2026-05-05 08:59 30.85074 101.06424 32456 ft 413 kts 272°
2026-05-05 08:59 30.85589 100.99775 32452 ft 413 kts 272°
2026-05-05 09:00 30.86102 100.93098 32452 ft 413 kts 272°
2026-05-05 09:00 30.86611 100.86434 32454 ft 413 kts 272°
2026-05-05 09:01 30.87117 100.79778 32456 ft 413 kts 272°
2026-05-05 09:01 30.87618 100.73113 32458 ft 413 kts 272°
2026-05-05 09:02 30.88116 100.66454 32460 ft 413 kts 272°
2026-05-05 09:02 30.88610 100.59819 32461 ft 413 kts 272°
2026-05-05 09:03 30.89101 100.53163 32462 ft 414 kts 272°
2026-05-05 09:03 30.89591 100.46465 32464 ft 413 kts 272°
2026-05-05 09:04 30.90077 100.39803 32463 ft 413 kts 272°
2026-05-05 09:04 30.90557 100.33139 32465 ft 413 kts 271°
2026-05-05 09:05 30.91034 100.26487 32463 ft 413 kts 271°
2026-05-05 09:05 30.91510 100.19796 32463 ft 413 kts 272°
2026-05-05 09:06 30.91981 100.13126 32464 ft 413 kts 272°
2026-05-05 09:06 30.92448 100.06464 32466 ft 413 kts 271°
2026-05-05 09:07 30.92910 99.99806 32468 ft 413 kts 272°
2026-05-05 09:07 30.93434 99.93157 32469 ft 413 kts 272°
2026-05-05 09:08 30.93972 99.86467 32468 ft 413 kts 272°
2026-05-05 09:08 30.94498 99.79841 32467 ft 413 kts 272°
2026-05-05 09:09 30.95020 99.73187 32466 ft 412 kts 272°
2026-05-05 09:09 30.95540 99.66510 32466 ft 413 kts 272°
2026-05-05 09:10 30.96053 99.59885 32468 ft 413 kts 272°
2026-05-05 09:10 30.96565 99.53207 32469 ft 413 kts 272°
2026-05-05 09:11 30.97072 99.46551 32469 ft 413 kts 272°
2026-05-05 09:11 30.97575 99.39901 32466 ft 413 kts 272°
2026-05-05 09:12 30.98076 99.33238 32464 ft 413 kts 272°
2026-05-05 09:12 30.98576 99.26544 32456 ft 413 kts 272°
2026-05-05 09:13 30.99067 99.19922 32452 ft 413 kts 272°
2026-05-05 09:13 30.99560 99.13226 32456 ft 413 kts 272°
2026-05-05 09:14 31.00046 99.06571 32461 ft 413 kts 272°
2026-05-05 09:14 31.00532 98.99888 32466 ft 413 kts 272°
2026-05-05 09:15 31.01011 98.93219 32465 ft 413 kts 272°
2026-05-05 09:15 31.01489 98.86555 32459 ft 413 kts 272°
2026-05-05 09:16 31.01961 98.79893 32450 ft 413 kts 272°
2026-05-05 09:16 31.02430 98.73209 32441 ft 413 kts 272°
2026-05-05 09:17 31.02897 98.66545 32446 ft 413 kts 272°
2026-05-05 09:17 31.03440 98.59832 32455 ft 413 kts 273°
2026-05-05 09:17 31.03719 98.56557 32456 ft 402 kts 272°
2026-05-05 09:18 31.03993 98.53341 32465 ft 396 kts 273°
2026-05-05 09:18 31.04525 98.46955 32469 ft 396 kts 272°
2026-05-05 09:19 31.05048 98.40595 32469 ft 395 kts 272°
2026-05-05 09:19 31.05570 98.34215 32467 ft 395 kts 272°
2026-05-05 09:20 31.06089 98.27823 32464 ft 396 kts 272°
2026-05-05 09:20 31.06604 98.21441 32461 ft 396 kts 272°
2026-05-05 09:21 31.07112 98.15083 32463 ft 395 kts 272°
2026-05-05 09:21 31.07626 98.08678 32465 ft 395 kts 272°
2026-05-05 09:22 31.08141 98.02342 32467 ft 395 kts 272°
2026-05-05 09:22 31.08655 97.95960 32468 ft 395 kts 272°
2026-05-05 09:23 31.09165 97.89574 32468 ft 395 kts 272°
2026-05-05 09:23 31.09669 97.83197 32469 ft 395 kts 272°
2026-05-05 09:24 31.10172 97.76806 32469 ft 395 kts 272°
2026-05-05 09:24 31.10672 97.70419 32469 ft 395 kts 272°
2026-05-05 09:25 31.11169 97.64033 32469 ft 395 kts 272°
2026-05-05 09:25 31.11661 97.57644 32468 ft 395 kts 272°
2026-05-05 09:26 31.12148 97.51305 32468 ft 395 kts 272°
2026-05-05 09:26 31.12636 97.44898 32466 ft 395 kts 272°
2026-05-05 09:27 31.13120 97.38509 32464 ft 395 kts 272°
2026-05-05 09:27 31.13599 97.32111 32463 ft 395 kts 272°
2026-05-05 09:28 31.14023 97.25745 32459 ft 394 kts 269°
2026-05-05 09:28 31.13986 97.19367 32458 ft 393 kts 265°
2026-05-05 09:29 31.13413 97.13027 32458 ft 392 kts 259°
2026-05-05 09:29 31.12312 97.06799 32459 ft 391 kts 255°
2026-05-05 09:30 31.11011 97.00666 32460 ft 391 kts 256°
2026-05-05 09:30 31.09696 96.94495 32463 ft 391 kts 255°
2026-05-05 09:31 31.08375 96.88340 32466 ft 391 kts 255°
2026-05-05 09:31 31.07049 96.82182 32469 ft 392 kts 255°
2026-05-05 09:32 31.05720 96.76028 32472 ft 391 kts 255°
2026-05-05 09:32 31.04395 96.69906 32473 ft 391 kts 255°
2026-05-05 09:33 31.03062 96.63766 32473 ft 391 kts 255°
2026-05-05 09:33 31.01720 96.57605 32473 ft 391 kts 255°
2026-05-05 09:34 31.00380 96.51458 32473 ft 391 kts 255°
2026-05-05 09:34 30.99044 96.45349 32473 ft 391 kts 255°
2026-05-05 09:35 30.97712 96.39200 32473 ft 391 kts 256°
2026-05-05 09:35 30.95762 96.29957 32474 ft 391 kts 255°
2026-05-05 09:36 30.94466 96.23831 32473 ft 391 kts 255°
2026-05-05 09:36 30.93158 96.17677 32473 ft 391 kts 255°
2026-05-05 09:37 30.91850 96.11535 32473 ft 391 kts 255°
2026-05-05 09:37 30.90540 96.05397 32473 ft 391 kts 255°
2026-05-05 09:38 30.89219 95.99223 32474 ft 390 kts 255°
2026-05-05 09:38 30.87905 95.93098 32472 ft 391 kts 255°
2026-05-05 09:39 30.86585 95.86966 32471 ft 391 kts 255°
2026-05-05 09:39 30.85262 95.80828 32470 ft 391 kts 255°
2026-05-05 09:40 30.83932 95.74686 32468 ft 391 kts 255°
2026-05-05 09:40 30.82642 95.68538 32467 ft 391 kts 256°
2026-05-05 09:41 30.81379 95.62383 32466 ft 391 kts 256°
2026-05-05 09:41 30.80108 95.56215 32466 ft 391 kts 256°
2026-05-05 09:42 30.78839 95.50091 32467 ft 391 kts 256°
2026-05-05 09:42 30.77564 95.43943 32468 ft 391 kts 256°
2026-05-05 09:43 30.76279 95.37772 32469 ft 391 kts 256°
2026-05-05 09:43 30.75000 95.31644 32472 ft 391 kts 256°
2026-05-05 09:44 30.73711 95.25485 32472 ft 391 kts 255°
2026-05-05 09:44 30.72422 95.19343 32473 ft 391 kts 256°
2026-05-05 09:45 30.71126 95.13180 32473 ft 391 kts 256°
2026-05-05 09:45 30.69843 95.07091 32473 ft 390 kts 255°
2026-05-05 09:46 30.68554 95.00993 32473 ft 391 kts 255°
2026-05-05 09:46 30.67244 94.94810 32473 ft 391 kts 255°
2026-05-05 09:47 30.65947 94.88702 32473 ft 391 kts 255°
2026-05-05 09:47 30.64643 94.82586 32473 ft 390 kts 255°
2026-05-05 09:48 30.63341 94.76471 32474 ft 391 kts 256°
2026-05-05 09:48 30.62060 94.70314 32474 ft 390 kts 256°
2026-05-05 09:49 30.60791 94.64226 32472 ft 390 kts 256°
2026-05-05 09:49 30.59507 94.58082 32471 ft 391 kts 256°
2026-05-05 09:50 30.58229 94.51981 32468 ft 391 kts 256°
2026-05-05 09:50 30.56947 94.45878 32467 ft 390 kts 256°
2026-05-05 09:51 30.55651 94.39726 32470 ft 391 kts 256°
2026-05-05 09:51 30.54361 94.33612 32475 ft 391 kts 255°
2026-05-05 09:52 30.53066 94.27498 32475 ft 390 kts 255°
2026-05-05 09:52 30.51773 94.21405 32475 ft 391 kts 256°
2026-05-05 09:53 30.50466 94.15256 32474 ft 390 kts 256°
2026-05-05 09:53 30.49172 94.09189 32469 ft 390 kts 255°
2026-05-05 09:54 30.47862 94.03059 32462 ft 390 kts 255°
2026-05-05 09:54 30.45971 93.97165 32456 ft 391 kts 243°
2026-05-05 09:55 30.42803 93.92026 32460 ft 394 kts 230°
2026-05-05 09:55 30.40895 93.89779 32317 ft 390 kts 228°
2026-05-05 09:55 30.38968 93.87573 31700 ft 391 kts 227°
2026-05-05 09:56 30.37033 93.85363 30821 ft 396 kts 227°
2026-05-05 09:56 30.35056 93.83112 30082 ft 400 kts 227°
2026-05-05 09:56 30.33067 93.80853 29698 ft 398 kts 227°
2026-05-05 09:56 30.31083 93.78606 29622 ft 399 kts 227°
2026-05-05 09:57 30.27107 93.74103 29578 ft 400 kts 226°
2026-05-05 09:57 30.23110 93.69584 29571 ft 400 kts 227°
2026-05-05 09:58 30.19118 93.65072 29570 ft 400 kts 227°
2026-05-05 09:58 30.15143 93.60583 29572 ft 401 kts 226°
2026-05-05 09:59 30.11149 93.56080 29573 ft 401 kts 227°
2026-05-05 09:59 30.07141 93.51563 29574 ft 400 kts 226°
2026-05-05 10:00 30.03116 93.47034 29574 ft 401 kts 227°
2026-05-05 10:00 29.99118 93.42545 29574 ft 401 kts 226°
2026-05-05 10:01 29.95113 93.38048 29574 ft 400 kts 226°
2026-05-05 10:01 29.91097 93.33546 29575 ft 401 kts 226°
2026-05-05 10:02 29.87083 93.29053 29574 ft 401 kts 226°
2026-05-05 10:02 29.83057 93.24548 29574 ft 400 kts 226°
2026-05-05 10:03 29.79063 93.20087 29573 ft 401 kts 226°
2026-05-05 10:03 29.75057 93.15616 29515 ft 401 kts 226°
2026-05-05 10:04 29.71048 93.11147 29397 ft 400 kts 226°
2026-05-05 10:04 29.67058 93.06705 29378 ft 399 kts 226°
2026-05-05 10:05 29.63050 93.02249 29374 ft 400 kts 226°
2026-05-05 10:05 29.59029 92.97782 29373 ft 400 kts 226°
2026-05-05 10:06 29.55006 92.93320 29374 ft 400 kts 226°
2026-05-05 10:06 29.51620 92.89567 29374 ft 399 kts 226°
2026-05-05 10:07 29.47617 92.85136 29374 ft 399 kts 226°
2026-05-05 10:07 29.43617 92.80712 29374 ft 399 kts 226°
2026-05-05 10:08 29.39579 92.76251 29374 ft 400 kts 226°
2026-05-05 10:08 29.35601 92.71878 29374 ft 399 kts 226°
2026-05-05 10:09 29.31536 92.67429 29374 ft 400 kts 226°
2026-05-05 10:09 29.27503 92.62990 29369 ft 399 kts 229°
2026-05-05 10:10 29.24532 92.57572 29368 ft 396 kts 249°
2026-05-05 10:10 29.23596 92.51333 29367 ft 401 kts 268°
2026-05-05 10:11 29.23733 92.44892 29363 ft 401 kts 269°
2026-05-05 10:11 29.23904 92.38515 29360 ft 401 kts 269°
2026-05-05 10:12 29.24076 92.32123 29359 ft 401 kts 269°
2026-05-05 10:12 29.24246 92.25693 29356 ft 401 kts 269°
2026-05-05 10:13 29.24416 92.19297 29354 ft 402 kts 269°
2026-05-05 10:13 29.24602 92.12907 29352 ft 401 kts 269°
2026-05-05 10:14 29.24788 92.06527 29349 ft 401 kts 269°
2026-05-05 10:14 29.24968 92.00148 29346 ft 401 kts 269°
2026-05-05 10:15 29.25148 91.93729 29334 ft 400 kts 269°
2026-05-05 10:15 29.25234 91.90555 29078 ft 397 kts 269°
2026-05-05 10:15 29.25320 91.87402 28826 ft 397 kts 269°
2026-05-05 10:16 29.25404 91.84246 28571 ft 396 kts 269°
2026-05-05 10:16 29.25489 91.81080 28326 ft 393 kts 269°
2026-05-05 10:16 29.25571 91.77983 27992 ft 385 kts 269°
2026-05-05 10:16 29.25670 91.74957 27642 ft 378 kts 270°
2026-05-05 10:17 29.25829 91.72013 27298 ft 371 kts 271°
2026-05-05 10:17 29.26001 91.69098 26954 ft 363 kts 271°
2026-05-05 10:17 29.26166 91.66233 26611 ft 356 kts 271°
2026-05-05 10:17 29.26327 91.63426 26273 ft 349 kts 271°
2026-05-05 10:18 29.26481 91.60699 25941 ft 343 kts 271°
2026-05-05 10:18 29.26630 91.57995 25609 ft 336 kts 271°
2026-05-05 10:18 29.26774 91.55362 25284 ft 330 kts 271°
2026-05-05 10:18 29.26917 91.52750 24946 ft 325 kts 271°
2026-05-05 10:19 29.27053 91.50227 24683 ft 317 kts 271°
2026-05-05 10:19 29.27189 91.47700 24427 ft 313 kts 271°
2026-05-05 10:19 29.27322 91.45248 24171 ft 306 kts 271°
2026-05-05 10:19 29.27446 91.42923 23925 ft 300 kts 271°
2026-05-05 10:20 29.27570 91.40591 23684 ft 293 kts 271°
2026-05-05 10:20 29.27694 91.38296 23615 ft 280 kts 271°
2026-05-05 10:20 29.27811 91.36118 23610 ft 266 kts 271°
2026-05-05 10:20 29.27921 91.34009 23533 ft 266 kts 270°
2026-05-05 10:21 29.28030 91.31897 23281 ft 264 kts 270°
2026-05-05 10:21 29.28139 91.29808 23032 ft 262 kts 270°
2026-05-05 10:21 29.28248 91.27728 22785 ft 262 kts 270°
2026-05-05 10:21 29.28354 91.25661 22541 ft 261 kts 270°
2026-05-05 10:22 29.28460 91.23610 22298 ft 260 kts 271°
2026-05-05 10:22 29.28568 91.21524 22048 ft 257 kts 271°
2026-05-05 10:22 29.28673 91.19483 21805 ft 257 kts 271°
2026-05-05 10:22 29.28780 91.17436 21558 ft 255 kts 270°
2026-05-05 10:23 29.28883 91.15419 21317 ft 255 kts 270°
2026-05-05 10:23 29.28985 91.13409 21076 ft 254 kts 270°
2026-05-05 10:23 29.29088 91.11392 20831 ft 253 kts 271°
2026-05-05 10:23 29.29190 91.09330 20696 ft 257 kts 271°
2026-05-05 10:24 29.29294 91.07327 20692 ft 252 kts 271°
2026-05-05 10:24 29.29397 91.05313 20691 ft 251 kts 270°
2026-05-05 10:24 29.29220 91.03332 20683 ft 250 kts 251°
2026-05-05 10:24 29.28387 91.01583 20689 ft 254 kts 233°
2026-05-05 10:25 29.27016 91.00260 20688 ft 262 kts 213°
2026-05-05 10:25 29.25235 90.99593 20691 ft 276 kts 193°
2026-05-05 10:25 29.23267 90.99773 20557 ft 293 kts 169°
2026-05-05 10:25 29.21446 91.00941 20316 ft 311 kts 143°
2026-05-05 10:26 29.20186 91.02999 20074 ft 324 kts 114°
2026-05-05 10:26 29.19863 91.05536 19833 ft 329 kts 83°
2026-05-05 10:26 29.20602 91.07994 19588 ft 325 kts 52°
2026-05-05 10:26 29.22180 91.09744 19347 ft 312 kts 22°
2026-05-05 10:27 29.24109 91.10795 19118 ft 308 kts 20°
2026-05-05 10:27 29.25884 91.12221 18859 ft 318 kts 45°
2026-05-05 10:27 29.26951 91.14455 18614 ft 322 kts 79°
2026-05-05 10:27 29.26954 91.16984 18548 ft 318 kts 103°
2026-05-05 10:28 29.26521 91.19482 18539 ft 319 kts 105°
2026-05-05 10:28 29.26056 91.21945 18531 ft 319 kts 105°
2026-05-05 10:28 29.25596 91.24455 18527 ft 319 kts 104°
2026-05-05 10:28 29.25157 91.26952 18519 ft 319 kts 104°
2026-05-05 10:29 29.24739 91.29414 18504 ft 307 kts 104°
2026-05-05 10:29 29.24345 91.31764 18498 ft 295 kts 104°
2026-05-05 10:29 29.23960 91.34057 18508 ft 293 kts 104°
2026-05-05 10:29 29.23577 91.36324 18513 ft 292 kts 104°
2026-05-05 10:30 29.23303 91.38654 18497 ft 294 kts 86°
2026-05-05 10:30 29.23894 91.40834 18487 ft 291 kts 50°
2026-05-05 10:30 29.25378 91.42311 18504 ft 276 kts 13°
2026-05-05 10:30 29.27189 91.42827 18557 ft 268 kts
2026-05-05 10:31 29.28968 91.42714 18298 ft 248 kts 326°
2026-05-05 10:31 29.30118 91.41415 17736 ft 230 kts 282°
2026-05-05 10:31 29.30239 91.39621 17110 ft 236 kts 262°
2026-05-05 10:31 29.30183 91.37726 16811 ft 235 kts 271°
2026-05-05 10:32 29.30283 91.35903 16623 ft 229 kts 271°
2026-05-05 10:32 29.30361 91.34113 16476 ft 219 kts 270°
2026-05-05 10:32 29.30405 91.32403 16230 ft 213 kts 269°
2026-05-05 10:32 29.30419 91.30719 15970 ft 209 kts 268°
2026-05-05 10:33 29.30409 91.29067 15678 ft 205 kts 268°
2026-05-05 10:33 29.30390 91.27454 15475 ft 196 kts 267°
2026-05-05 10:33 29.30369 91.25956 15496 ft 184 kts 267°
2026-05-05 10:33 29.30345 91.24504 15501 ft 183 kts 267°
2026-05-05 10:34 29.30320 91.23031 15499 ft 183 kts 267°
2026-05-05 10:34 29.30294 91.21589 15491 ft 183 kts 267°
2026-05-05 10:34 29.30267 91.20127 15494 ft 182 kts 267°
2026-05-05 10:34 29.30241 91.18687 15489 ft 183 kts 267°
2026-05-05 10:35 29.30215 91.17235 15528 ft 181 kts 267°
2026-05-05 10:35 29.30189 91.15771 15480 ft 182 kts 267°
2026-05-05 10:35 29.30164 91.14325 15267 ft 181 kts 267°
2026-05-05 10:35 29.30140 91.12903 15032 ft 180 kts 268°
2026-05-05 10:36 29.30116 91.11450 14796 ft 180 kts 267°
2026-05-05 10:36 29.30092 91.10036 14564 ft 179 kts 267°
2026-05-05 10:36 29.30070 91.08634 14323 ft 172 kts 268°
2026-05-05 10:36 29.30048 91.07280 14098 ft 169 kts 267°
2026-05-05 10:37 29.30027 91.05930 13885 ft 169 kts 267°
2026-05-05 10:37 29.30005 91.04577 13667 ft 169 kts 268°
2026-05-05 10:37 29.29985 91.03243 13451 ft 168 kts 267°
2026-05-05 10:37 29.29964 91.01903 13236 ft 168 kts 267°
2026-05-05 10:38 29.29943 91.00568 13014 ft 168 kts 267°
2026-05-05 10:38 29.29922 90.99223 12795 ft 169 kts 268°
2026-05-05 10:38 29.29902 90.97868 12576 ft 168 kts 268°
2026-05-05 10:38 29.29882 90.96535 12353 ft 167 kts 268°
2026-05-05 10:39 29.29862 90.95207 12139 ft 168 kts 268°
2026-05-05 10:39 29.29843 90.93861 11919 ft 167 kts 267°
2026-05-05 10:39 29.29826 90.92536 11778 ft 159 kts 268°
2026-05-05 10:39 29.29807 90.91496 11778 ft 106 kts 269°
2026-05-05 10:40 29.29794 90.90775 11784 ft 77 kts 270°
2026-05-05 10:40 29.29708 90.90331 11788 ft 43 kts 246°
2026-05-05 10:40 29.29642 90.90118 11786 ft 21 kts 254°
2026-05-05 10:40 29.29588 90.90007 11787 ft 11 kts 196°
2026-05-05 10:41 29.29530 90.89982 11788 ft 6 kts 224°
2026-05-05 10:41 29.29522 90.89960 11788 ft 0 kts 262°
2026-05-05 10:41 29.29522 90.89964 11788 ft 0 kts 262°
2026-05-05 10:41 29.29521 90.89887 11788 ft 12 kts 269°
2026-05-05 10:42 29.29517 90.89714 11786 ft 12 kts 269°
2026-05-05 10:42 29.29515 90.89596 11785 ft 16 kts 266°
2026-05-05 10:42 29.29514 90.89453 11785 ft 16 kts 270°
2026-05-05 10:43 29.29512 90.89321 11785 ft 14 kts 270°
2026-05-05 10:43 29.29501 90.89219 11788 ft 12 kts 240°
2026-05-05 10:43 29.29439 90.89194 11789 ft 10 kts 171°
2026-05-05 10:43 29.29361 90.89189 11788 ft 11 kts 194°
2026-05-05 10:44 29.29326 90.89202 11788 ft 1 kts 94°
2026-05-05 10:44 29.29322 90.89232 11788 ft 6 kts 103°
2026-05-05 10:44 29.29314 90.89264 11788 ft 0 kts 105°
2026-05-05 10:44 29.29313 90.89266 11788 ft 0 kts 105°